Fort Drum, NY

6:03 PM EDT on July 26, 2017 (GMT -0400)
Wheeler-Sack Army Air Field

Weather History for KGTB - March, 2013

Change the Weather History Date:

Monday, March 18, 2013

  Actual Average Record
Temperature  
Mean Temperature 24 °F -  
Max Temperature 37 °F 33 °F 75 °F (2012)
Min Temperature 10 °F 18 °F 8 °F (2014)
Degree Days  
Heating Degree Days 42    
Moisture  
Dew Point 15 °F    
Average Humidity 66    
Maximum Humidity 96    
Minimum Humidity 28    
Precipitation  
Precipitation 0.00 in - - ()
Sea Level Pressure  
Sea Level Pressure 30.13 in    
Wind  
Wind Speed 11 mph (SE)    
Max Wind Speed 22 mph    
Max Gust Speed 26 mph    
Visibility 8 miles    
Events Rain , Snow    
Averages and records for this station are not official NWS values.
T = Trace of Precipitation, MM = Missing Value Source: NWS Daily Summary

Daily Weather History Graph

Daily Weather History Graph

Search for Another Location

Airport or City:

Trip Planner

Search our weather history database for the weather conditions in past years. The results will help you decide how hot, cold, wet, or windy it might be!

Date:

Astronomy

Mar. 18, 2013 Rise Set
Actual Time 7:09 AM EDT 7:13 PM EDT
Civil Twilight 6:40 AM EDT 7:41 PM EDT
Nautical Twilight 6:06 AM EDT 8:15 PM EDT
Astronomical Twilight 5:32 AM EDT 8:50 PM EDT
Moon 10:55 AM EDT (3/18) 1:22 AM EDT (3/18)
Length of Visible Light 13h 01m
Length of Day
12h 03m
Waxing Crescent, 40% of the Moon is Illuminated
Mar 18
Waxing Crescent
Mar 19
First Quarter
Mar 27
Full
Apr 3
Last Quarter
Apr 10
New

Hourly Weather History & Observations

Time (EDT) Temp. Windchill Dew Point Humidity Pressure Visibility Wind Dir Wind Speed Gust Speed Precip Events Conditions
12:55 AM 15.3 °F 7.9 °F 6.4 °F 68% 30.38 in 10.0 mi SE 4.6 mph - N/A   Clear
1:55 AM 13.1 °F 1.8 °F 5.4 °F 71% 30.38 in 10.0 mi SE 8.1 mph - N/A   Clear
2:55 AM 13.1 °F 1.8 °F 5.4 °F 71% 30.38 in 10.0 mi SE 8.1 mph - N/A   Clear
3:55 AM 12.4 °F 0.0 °F 4.8 °F 72% 30.37 in 10.0 mi SE 9.2 mph - N/A   Clear
4:55 AM 11.3 °F -1.3 °F 3.9 °F 72% 30.37 in 10.0 mi SE 9.2 mph - N/A   Clear
5:55 AM 10.4 °F -2.4 °F 3.2 °F 73% 30.39 in 10.0 mi SE 9.2 mph - N/A   Clear
6:55 AM 10.6 °F -2.2 °F 3.0 °F 72% 30.40 in 10.0 mi SE 9.2 mph - N/A   Clear
7:55 AM 11.7 °F -0.9 °F 3.6 °F 70% 30.40 in 10.0 mi SE 9.2 mph - N/A   Clear
8:55 AM 14.7 °F 2.9 °F 3.7 °F 62% 30.41 in 10.0 mi SSE 9.2 mph - N/A   Clear
9:55 AM 19.4 °F 7.9 °F 3.9 °F 51% 30.38 in 10.0 mi ESE 10.4 mph - N/A   Clear
10:55 AM 22.8 °F 9.9 °F 4.6 °F 46% 30.35 in 10.0 mi SE 15.0 mph 21.9 mph N/A   Clear
11:55 AM 27.1 °F 18.2 °F 3.9 °F 37% 30.32 in 10.0 mi ESE 9.2 mph - N/A   Partly Cloudy
12:55 PM 31.3 °F 23.9 °F 3.4 °F 31% 30.30 in 10.0 mi South 8.1 mph - N/A   Scattered Clouds
1:55 PM 33.4 °F 25.9 °F 3.0 °F 28% 30.26 in 10.0 mi SSE 9.2 mph - N/A   Scattered Clouds
2:55 PM 34.9 °F 26.6 °F 7.3 °F 32% 30.19 in 10.0 mi SE 11.5 mph - N/A   Mostly Cloudy
3:55 PM 36.3 °F 29.5 °F 8.2 °F 31% 30.15 in 10.0 mi SE 9.2 mph - N/A   Scattered Clouds
4:55 PM 37.4 °F 32.1 °F 8.1 °F 30% 30.12 in 10.0 mi SE 6.9 mph - N/A   Overcast
5:55 PM 36.7 °F 32.0 °F 8.8 °F 31% 30.09 in 10.0 mi SSE 5.8 mph - N/A   Overcast
6:55 PM 34.9 °F 26.2 °F 10.2 °F 36% 30.07 in 10.0 mi South 12.7 mph - N/A   Mostly Cloudy
7:55 PM 33.4 °F 22.3 °F 9.0 °F 36% 30.06 in 10.0 mi SSE 18.4 mph - N/A   Mostly Cloudy
8:27 PM 32.0 °F 23.0 °F 10.4 °F 41% 30.06 in 10.0 mi SSE 11.5 mph 20.7 mph N/A   Overcast
8:55 PM 31.8 °F 21.8 °F 16.3 °F 53% 30.04 in 10.0 mi SE 13.8 mph 21.9 mph 0.00 in Rain Light Freezing Rain
9:06 PM 32.0 °F 20.8 °F 17.6 °F 55% 30.03 in 10.0 mi SE 17.3 mph 26.5 mph N/A Snow Light Snow
9:17 PM 32.0 °F 21.6 °F 19.4 °F 60% 30.02 in 9.0 mi ESE 15.0 mph - N/A   Overcast
9:55 PM 29.8 °F 18.4 °F 24.1 °F 79% 29.99 in 7.0 mi SE 16.1 mph - 0.00 in   Overcast
10:07 PM 30.2 °F 18.1 °F 24.8 °F 80% 29.98 in 5.0 mi ESE 18.4 mph - N/A Snow Light Snow
10:17 PM 28.4 °F 16.2 °F 24.8 °F 86% 29.96 in 5.0 mi ESE 17.3 mph 24.2 mph N/A Snow Light Snow
10:19 PM 28.4 °F 15.8 °F 24.8 °F 86% 29.96 in 5.0 mi ESE 18.4 mph 24.2 mph N/A Snow Light Snow
10:28 PM 28.4 °F 16.6 °F 26.6 °F 93% 29.96 in 6.0 mi ESE 16.1 mph - N/A   Overcast
10:55 PM 29.3 °F 17.0 °F 27.7 °F 94% 29.92 in 5.0 mi ESE 18.4 mph 26.5 mph 0.00 in Snow Light Snow
11:00 PM 30.2 °F 17.1 °F 28.4 °F 93% 29.92 in 4.0 mi ESE 21.9 mph 25.3 mph N/A Snow Light Snow
11:13 PM 30.2 °F 18.5 °F 28.4 °F 93% 29.91 in 2.5 mi ESE 17.3 mph 25.3 mph N/A Snow Light Snow
11:17 PM 30.2 °F 17.8 °F 28.4 °F 93% 29.89 in 2.0 mi ESE 19.6 mph 26.5 mph N/A Snow Light Snow
11:21 PM 30.2 °F 18.5 °F 28.4 °F 93% 29.90 in 1.8 mi SE 17.3 mph 26.5 mph N/A Snow Light Snow
11:22 PM 30.2 °F 18.1 °F 28.4 °F 93% 29.89 in 2.0 mi ESE 18.4 mph 26.5 mph N/A Snow Light Snow
11:27 PM 30.2 °F 18.9 °F 28.4 °F 93% 29.89 in 2.5 mi SE 16.1 mph 26.5 mph N/A Snow Light Snow
11:30 PM 30.2 °F 19.8 °F 28.4 °F 93% 29.90 in 3.0 mi SE 13.8 mph 25.3 mph N/A Snow Light Snow
11:55 PM 29.5 °F 19.3 °F 28.6 °F 96% 29.88 in 5.0 mi SE 12.7 mph 20.7 mph 0.00 in   Overcast